CGBRI CYHZ-CYQM

Flight info

Callsign CGBRI
Flight time N/A
Altitude 8000
Route DCT KELNO DCT
Aircraft BE60/L-V/N

Departure

Time 2025-12-29 23:43
Airport Halifax / Stanfield International Airport (CYHZ)

Arrival

Time N/A
Airport Greater Moncton Roméo LeBlanc International Airport (CYQM)
Time Latitude Longitude Altitude Speed Heading
2025-12-29 23:15 44.88339 -63.51502 452 ft 0 kts 304°
2025-12-29 23:34 44.88347 -63.51500 452 ft 4 kts 97°
2025-12-29 23:35 44.88279 -63.51378 452 ft 6 kts 122°
2025-12-29 23:35 44.88351 -63.51293 452 ft 12 kts 37°
2025-12-29 23:36 44.88431 -63.51208 452 ft 15 kts 29°
2025-12-29 23:36 44.88605 -63.51240 451 ft 13 kts 350°
2025-12-29 23:37 44.88795 -63.51288 451 ft 15 kts 351°
2025-12-29 23:37 44.88935 -63.51323 451 ft 0 kts 359°
2025-12-29 23:38 44.89005 -63.51290 451 ft 7 kts 36°
2025-12-29 23:39 44.89010 -63.51284 451 ft 0 kts 35°
2025-12-29 23:40 44.89022 -63.51273 451 ft 9 kts 31°
2025-12-29 23:41 44.89065 -63.51127 449 ft 0 kts 127°
2025-12-29 23:41 44.88976 -63.50950 450 ft 57 kts 125°
2025-12-29 23:42 44.88262 -63.49706 1005 ft 84 kts 140°
2025-12-29 23:42 44.87458 -63.48013 2244 ft 91 kts 127°
2025-12-29 23:43 44.87394 -63.47044 2494 ft 125 kts 84°
2025-12-29 23:43 44.89608 -63.46238 2959 ft 201 kts 345°
2025-12-29 23:44 44.92141 -63.46975 3985 ft 178 kts 345°
2025-12-29 23:44 44.94539 -63.47464 4854 ft 170 kts 345°
2025-12-29 23:45 44.95823 -63.49204 5698 ft 116 kts 258°
2025-12-29 23:45 44.96423 -63.52561 6958 ft 119 kts 272°
2025-12-29 23:46 44.96982 -63.54823 7646 ft 127 kts 274°
2025-12-29 23:46 44.97284 -63.56015 7964 ft 134 kts 274°
2025-12-29 23:47 44.97977 -63.58748 7981 ft 157 kts 277°
2025-12-29 23:47 44.98752 -63.61762 7974 ft 167 kts 277°
2025-12-29 23:48 44.99417 -63.64365 7974 ft 171 kts 277°
2025-12-29 23:48 45.00367 -63.68081 7990 ft 174 kts 278°
2025-12-29 23:49 45.01048 -63.70770 7990 ft 176 kts 278°
2025-12-29 23:49 45.02298 -63.75695 7977 ft 178 kts 278°
2025-12-29 23:50 45.03138 -63.79013 7969 ft 180 kts 278°
2025-12-29 23:50 45.03982 -63.82350 7971 ft 180 kts 278°
2025-12-29 23:51 45.04403 -63.84016 7969 ft 180 kts 278°
2025-12-29 23:51 45.05245 -63.87349 7962 ft 181 kts 278°
2025-12-29 23:52 45.06091 -63.90710 7962 ft 182 kts 278°
2025-12-29 23:52 45.06938 -63.94070 7960 ft 181 kts 278°
2025-12-29 23:53 45.07778 -63.97419 7957 ft 181 kts 278°
2025-12-29 23:53 45.09033 -64.02456 7947 ft 180 kts 277°
2025-12-29 23:54 45.09851 -64.05777 7946 ft 179 kts 277°
2025-12-29 23:54 45.10263 -64.07445 7947 ft 180 kts 277°
2025-12-29 23:55 45.11091 -64.10794 7943 ft 180 kts 277°
2025-12-29 23:55 45.11935 -64.14146 7933 ft 181 kts 279°
2025-12-29 23:56 45.12786 -64.17449 8006 ft 178 kts 278°
2025-12-29 23:56 45.14836 -64.19814 8033 ft 217 kts 332°
2025-12-29 23:57 45.17696 -64.21196 8031 ft 213 kts 325°
2025-12-29 23:57 45.21358 -64.24475 8018 ft 209 kts 319°
2025-12-29 23:58 45.23874 -64.26560 8014 ft 209 kts 318°
2025-12-29 23:58 45.25112 -64.27617 8006 ft 211 kts 319°
2025-12-29 23:59 45.27659 -64.29736 8007 ft 213 kts 320°
2025-12-29 23:59 45.30213 -64.31882 7989 ft 213 kts 320°
2025-12-30 00:00 45.32774 -64.34036 7988 ft 214 kts 319°
2025-12-30 00:00 45.35341 -64.36194 7997 ft 214 kts 319°
2025-12-30 00:01 45.37900 -64.38355 8010 ft 214 kts 320°
2025-12-30 00:01 45.41776 -64.41624 7989 ft 215 kts 320°
2025-12-30 00:02 45.44338 -64.43790 7991 ft 216 kts 320°
2025-12-30 00:02 45.46925 -64.45978 7996 ft 217 kts 320°
2025-12-30 00:03 45.48224 -64.47079 7984 ft 218 kts 320°
2025-12-30 00:03 45.50834 -64.49290 7981 ft 218 kts 320°
2025-12-30 00:04 45.53437 -64.51496 7976 ft 217 kts 320°
2025-12-30 00:04 45.56040 -64.53709 7982 ft 218 kts 320°
2025-12-30 00:05 45.58635 -64.55913 7982 ft 218 kts 320°
2025-12-30 00:05 45.61249 -64.58141 7973 ft 218 kts 320°
2025-12-30 00:06 45.63875 -64.60400 7904 ft 224 kts 320°
2025-12-30 00:06 45.66496 -64.62758 7966 ft 220 kts 317°
2025-12-30 00:07 45.69025 -64.65216 7984 ft 219 kts 316°
2025-12-30 00:07 45.71563 -64.67636 8023 ft 222 kts 320°
2025-12-30 00:08 45.74176 -64.69942 8070 ft 220 kts 317°
2025-12-30 00:08 45.76740 -64.72400 8003 ft 225 kts 320°
2025-12-30 00:09 45.79528 -64.74571 7950 ft 229 kts 325°